ISIS 1

Last updated on Thu Nov 21 2024 00:02:11 GMT+0000 (Coordinated Universal Time)

1 03669U 69009A 24325.61095191 .00000424 00000+0 30341-3 0 9999 2 03669 88.4498 207.0155 1709108 326.1916 24.0714 11.30092248294970
UTC large
Height (km)
Speed (km/s)
/
Latitude / Longitude
Inclination (degrees)
Orbital Period (minutes)
Azimuth
Elevation
Range (km)
Doppler Factor

Next 0 passes for location: London (51.5072 / 0.1276)

Sorry there are no passes over London.